Date,TemperatureHighF,TemperatureAvgF,TemperatureLowF,DewpointHighF,DewpointAvgF,DewpointLowF,HumidityHigh,HumidityAvg,HumidityLow,PressureMaxIn,PressureMinIn,WindSpeedMaxMPH,WindSpeedAvgMPH,GustSpeedMaxMPH,PrecipitationSumIn
2013-6-1,68.8,64.5,59.6,64.2,56.4,51.9,93,76,60,29.94,29.65,4,1,4,0.00
2013-6-2,65.2,58.4,51.5,53.0,50.4,46.2,82,75,62,30.04,29.93,0,0,0,0.00
2013-6-3,76.7,61.5,46.6,62.0,53.2,43.0,89,75,59,30.02,29.84,2,0,2,0.00
2013-6-4,73.4,65.5,61.6,67.3,60.1,55.6,90,83,76,29.92,29.82,7,1,7,0.01
2013-6-5,68.8,64.1,61.7,64.4,60.8,58.6,92,89,86,29.94,29.87,2,0,2,0.18
2013-6-6,75.8,66.1,57.6,60.5,56.7,53.1,91,73,52,29.93,29.87,3,0,3,0.00
2013-6-7,77.8,64.9,52.9,58.9,53.8,49.4,90,69,46,29.96,29.86,2,0,2,0.00
2013-6-8,81.2,67.9,56.7,65.0,57.7,50.8,83,71,55,29.90,29.72,9,1,9,0.00
2013-6-9,82.3,70.1,61.6,61.8,58.2,52.0,90,69,37,29.81,29.73,5,1,5,0.21
2013-6-10,92.0,72.5,58.5,66.6,59.7,53.6,86,66,38,29.86,29.78,5,0,5,0.00
2013-6-11,92.5,79.8,71.1,70.4,66.5,62.7,82,65,44,29.85,29.75,8,1,8,0.00
2013-6-12,78.1,76.7,76.1,68.5,68.4,68.3,77,76,72,29.79,29.77,6,2,6,0.00
2013-6-16,81.0,76.3,72.4,72.7,70.2,68.0,86,82,76,29.93,29.86,3,1,3,0.00
2013-6-17,81.7,72.1,66.4,71.8,66.7,62.7,91,84,69,29.96,29.86,7,0,7,0.04
2013-6-18,89.3,72.3,62.8,71.6,64.8,60.1,92,79,52,29.98,29.94,6,1,6,0.00
2013-6-19,86.4,74.5,63.7,74.0,66.2,60.5,90,76,57,30.00,29.90,8,2,8,0.00
2013-6-20,90.5,78.5,68.8,76.0,69.7,64.1,85,75,60,29.97,29.86,10,4,10,0.00
2013-6-21,91.8,81.6,74.2,76.0,71.8,67.7,85,73,60,29.94,29.87,8,5,8,0.00
2013-6-22,92.9,81.2,73.3,74.4,69.9,66.8,81,69,52,29.95,29.82,7,4,7,0.00
2013-6-23,87.7,80.0,73.4,75.9,70.4,67.7,83,73,61,29.91,29.76,8,4,8,0.00
2013-6-24,90.0,80.6,74.5,73.4,69.0,67.1,80,68,53,29.92,29.76,8,5,8,0.00
2013-6-25,87.1,79.1,73.4,74.7,69.7,67.1,87,73,63,29.86,29.69,8,4,8,0.03
2013-6-26,101.5,84.5,73.8,74.3,68.7,62.7,84,63,30,29.85,29.69,6,1,6,0.00
2013-6-27,87.1,77.4,71.3,76.6,68.1,63.6,82,73,66,29.97,29.80,6,0,6,0.01
2013-6-28,89.8,76.9,67.5,70.7,63.3,56.8,92,66,39,29.91,29.84,4,1,4,0.04
2013-6-29,84.8,73.4,62.8,60.0,56.7,54.3,76,58,36,29.85,29.78,7,2,7,0.00
2013-6-30,80.5,70.4,60.3,59.4,56.4,53.2,79,63,46,29.99,29.85,5,2,5,0.00